Tracking 23893 objects as of 29-Nov-2021
HD Live streaming from Space Station
objects crossing your sky now

THORAD AGENA D DEB

Track THORAD AGENA D DEB now!
10-day predictions


NORAD ID: 4205
Int'l Code: 1969-082BU
Perigee: 760.2 km
Apogee: 861.2 km
Inclination: 70.1 °
Period: 100.9 minutes
Semi major axis: 7181 km
RCS: 0.0519 m2 (small)
Launch date: September 30, 1969
Source: United States (US)
Launch site: AIR FORCE WESTERN TEST RANGE (AFWTR)

Note: This is SATELLITE DEBRIS
aabbcc
Your satellite tracking list
Your tracking list is empty




NASA's NSSDC Master Catalog

Two Line Element Set (TLE):
1 04205U 69082BU  21332.52987819  .00000060  00000-0  47229-4 0  9990
2 04205  70.0606 255.5602 0070322 299.1525  60.2571 14.26471105864329
Source of the keplerian elements: AFSPC